Карточка аэропорта UUBW

Внимание!
Информация на этой странице в стадии наполнения.
Если вы не увидели какой-то информации, или заметили неточность - пожалуйста сообщите нам!
Спасибо!
Команда RU-STAFF
Название аэропортаЖуковский
Название аэропорта (англ.)Zhukovsky
Превышение1325 ft. (403.9 m.)
Координаты55°33.168', 38°8.9820000000002'
Высота перехода10000 ft
Эшелон переходаQNH>=1013hPa:FL110; QNH<1013hPa:FL120; QNH<977hPa:FL130
Коды ответчика
Зона ОрВДМосква РПИ (UUWV)
Данные METARUUBW 181600Z 24001MPS CAVOK 25/17 Q1014 R30/010060 NOSIG RMK QFE750
Проноз погоды (TAF)UUBW 181355Z 1815/1915 32003MPS 9999 SCT030 TX24/1815Z TN18/1901Z PROB40 TEMPO 1815/1818 -TSRA SCT020CB PROB40 TEMPO 1818/1824 0300 FG TEMPO 1900/1915 35008G15MPS 2100 -TSRA FEW006 BKN016CB
NOTAMshow/hide NOTAM
AWOS   TABLE

Информация о ВПП

ВПП Длина ВПП (м.) Покрытие Курс ВПП Частота ILS
124600Цементобетон121 
304600Цементобетон301 

Диспетчерские позиции


Сценарии

Сценарий
Нет результатов.


Спутниковое изображение